Starlink 33683

operational
NORAD ID: 63573 Int'l Des: 2025-076 Owner: SPXS Country: US Constellation: starlink
LEOCIRCULAR

About Starlink 33683

Description loading...

Live Position

Loading 3D Globe...

Upcoming Passes

Altitude History

Altitude vs Time

uPlot chart will show altitude changes over time

Two-Line Element Set

1 63573U 25076E 25303.48517448 .00044416 00000-0 16122-2 0 9991
2 63573 43.0026 337.3442 0000863 12.2752 347.8121 15.27614626 31913
Epoch: Oct 30, 2025 • Age: 51 hours

Current Status

Altitude 490.4 km
Velocity 7.62 km/s
Sub-Earth Point -28.57°S, 82.86°W
Launch Date Apr 14, 2025
Age 0.5 years
Type internet

Technical Details

Classification Payload
Mass 575.00 kg
Dry Mass 530.00 kg
Total Mass 575.00 kg
Length 0.30 m
Diameter 4.10 m
Span 29.00 m
Shape Box + pan
Manufacturer SPXS
Bus Type Starlink V2MO
Phase Status In Orbit
Owner/State SPXS/US

Large Constellations

Loading constellations...